Washington, NC

5:55 AM EST on November 18, 2017 (GMT -0500)
Warren

Weather History for KOCW - April, 2013

Change the Weather History Date:

Thursday, April 25, 2013

  Actual Average (KPGV) Record (KPGV)
Temperature  
Mean Temperature 58 °F -  
Max Temperature 65 °F 76 °F 94 °F (1960)
Min Temperature 48 °F 49 °F 37 °F (1969)
Degree Days  
Heating Degree Days 8    
Growing Degree Days 8 (Base 50)    
Moisture  
Dew Point 52 °F    
Average Humidity 70    
Maximum Humidity 80    
Minimum Humidity 52    
Precipitation  
Precipitation 0.00 in - - ()
Sea Level Pressure  
Sea Level Pressure 30.18 in    
Wind  
Wind Speed 7 mph (East)    
Max Wind Speed 13 mph    
Max Gust Speed 17 mph    
Visibility 10 miles    
Events      
Averages and records for this station are not official NWS values.
T = Trace of Precipitation, MM = Missing Value Source: NWS Daily Summary

Daily Weather History Graph

Daily Weather History Graph

Search for Another Location

Airport or City:

Trip Planner

Search our weather history database for the weather conditions in past years. The results will help you decide how hot, cold, wet, or windy it might be!

Date:

Astronomy

Apr. 25, 2013 Rise Set
Actual Time 6:22 AM EDT 7:49 PM EDT
Civil Twilight 5:56 AM EDT 8:16 PM EDT
Nautical Twilight 5:23 AM EDT 8:49 PM EDT
Astronomical Twilight 4:50 AM EDT 9:22 PM EDT
Moon 7:59 PM EDT (4/25) 6:04 AM EDT (4/25)
Length of Visible Light 14h 20m
Length of Day
13h 26m
Full, 100% of the Moon is Illuminated
Apr 25
Full
Apr 25
Full
May 2
Last Quarter
May 9
New
May 18
First Quarter

Hourly Weather History & Observations

Time (EDT) Temp. Dew Point Humidity Pressure Visibility Wind Dir Wind Speed Gust Speed Precip Events Conditions
12:15 AM 65.3 °F 58.1 °F 77% 30.06 in 10.0 mi SSW 6.9 mph - N/A   Clear
12:35 AM 64.8 °F 57.6 °F 77% 30.06 in 10.0 mi SSW 10.4 mph - N/A   Clear
12:55 AM 65.5 °F 58.1 °F 77% 30.06 in 10.0 mi SSW 6.9 mph - N/A   Clear
1:15 AM 64.4 °F 57.2 °F 77% 30.06 in 10.0 mi SSW 4.6 mph - N/A   Clear
1:35 AM 64.4 °F 57.2 °F 77% 30.06 in 10.0 mi SSW 8.1 mph - N/A   Clear
1:55 AM 64.4 °F 56.8 °F 76% 30.05 in 10.0 mi SSW 6.9 mph - N/A   Clear
2:15 AM 64.4 °F 57.2 °F 77% 30.05 in 10.0 mi SSW 5.8 mph - N/A   Clear
2:35 AM 63.9 °F 57.0 °F 78% 30.05 in 10.0 mi SSW 5.8 mph - N/A   Clear
2:55 AM 63.5 °F 56.5 °F 78% 30.05 in 10.0 mi SSW 6.9 mph - N/A   Clear
3:15 AM 63.0 °F 56.3 °F 79% 30.05 in 10.0 mi SSW 4.6 mph - N/A   Clear
3:35 AM 63.0 °F 56.3 °F 79% 30.06 in 10.0 mi SSW 4.6 mph - N/A   Scattered Clouds
3:55 AM 63.0 °F 56.3 °F 79% 30.06 in 10.0 mi SW 5.8 mph - N/A   Mostly Cloudy
4:15 AM 63.0 °F 56.1 °F 78% 30.06 in 10.0 mi SSW 5.8 mph - N/A   Mostly Cloudy
4:35 AM 63.0 °F 55.8 °F 77% 30.07 in 10.0 mi SSW 6.9 mph - N/A   Mostly Cloudy
4:55 AM 63.3 °F 55.8 °F 76% 30.07 in 10.0 mi SW 8.1 mph - N/A   Mostly Cloudy
5:15 AM 63.5 °F 55.8 °F 76% 30.08 in 10.0 mi WSW 9.2 mph - N/A   Mostly Cloudy
5:35 AM 63.5 °F 55.8 °F 76% 30.10 in 10.0 mi WSW 8.1 mph - N/A   Overcast
5:55 AM 63.0 °F 55.4 °F 76% 30.11 in 10.0 mi WSW 6.9 mph - N/A   Overcast
6:15 AM 63.1 °F 55.6 °F 76% 30.11 in 10.0 mi West 5.8 mph - N/A   Overcast
6:35 AM 63.0 °F 55.4 °F 76% 30.13 in 10.0 mi Calm Calm - N/A   Mostly Cloudy
6:55 AM 63.5 °F 55.4 °F 75% 30.14 in 10.0 mi Calm Calm - N/A   Mostly Cloudy
7:15 AM 63.1 °F 55.4 °F 76% 30.14 in 10.0 mi WSW 3.5 mph - N/A   Overcast
7:35 AM 63.0 °F 55.4 °F 76% 30.15 in 10.0 mi NW 4.6 mph - N/A   Mostly Cloudy
7:55 AM 63.0 °F 55.8 °F 77% 30.16 in 10.0 mi NW 4.6 mph - N/A   Mostly Cloudy
8:15 AM 63.5 °F 55.9 °F 76% 30.16 in 10.0 mi NW 6.9 mph - N/A   Scattered Clouds
8:35 AM 64.4 °F 56.7 °F 76% 30.17 in 10.0 mi NW 6.9 mph - N/A   Clear
8:55 AM 64.4 °F 55.9 °F 74% 30.18 in 10.0 mi NNW 6.9 mph - N/A   Scattered Clouds
9:15 AM 64.4 °F 55.4 °F 73% 30.19 in 10.0 mi NNW 9.2 mph - N/A   Scattered Clouds
9:35 AM 65.3 °F 55.8 °F 71% 30.20 in 10.0 mi North 8.1 mph - N/A   Scattered Clouds
9:55 AM 64.4 °F 54.5 °F 70% 30.20 in 10.0 mi NNE 6.9 mph - N/A   Mostly Cloudy
10:15 AM 64.4 °F 54.5 °F 70% 30.20 in 10.0 mi NNE 11.5 mph - N/A   Mostly Cloudy
10:35 AM 63.0 °F 52.7 °F 69% 30.22 in 10.0 mi ENE 9.2 mph 16.1 mph N/A   Mostly Cloudy
10:55 AM 63.0 °F 51.4 °F 66% 30.21 in 10.0 mi ENE 10.4 mph 16.1 mph N/A   Mostly Cloudy
11:15 AM 63.3 °F 50.4 °F 63% 30.22 in 10.0 mi NE 9.2 mph - N/A   Scattered Clouds
11:35 AM 64.9 °F 48.9 °F 56% 30.22 in 10.0 mi NE 9.2 mph 16.1 mph N/A   Scattered Clouds
11:55 AM 64.4 °F 47.7 °F 55% 30.22 in 10.0 mi NNE 10.4 mph 17.3 mph N/A   Scattered Clouds
12:15 PM 64.4 °F 46.8 °F 53% 30.22 in 10.0 mi NE 9.2 mph - N/A   Clear
12:35 PM 64.8 °F 46.8 °F 52% 30.22 in 10.0 mi NE 6.9 mph - N/A   Clear
1:15 PM 65.5 °F 49.3 °F 56% 30.21 in 10.0 mi East 10.4 mph - N/A   Scattered Clouds
1:35 PM 65.5 °F 50.4 °F 58% 30.21 in 10.0 mi East 11.5 mph 16.1 mph N/A   Clear
1:55 PM 65.1 °F 49.8 °F 58% 30.22 in 10.0 mi East 9.2 mph - N/A   Clear
2:15 PM 64.2 °F 49.6 °F 59% 30.23 in 10.0 mi East 8.1 mph - N/A   Scattered Clouds
2:55 PM 64.6 °F 50.0 °F 59% 30.23 in 10.0 mi NE 5.8 mph - N/A   Scattered Clouds
3:15 PM 64.6 °F 49.6 °F 58% 30.23 in 10.0 mi NE 8.1 mph - N/A   Scattered Clouds
3:35 PM 63.0 °F 49.3 °F 61% 30.23 in 10.0 mi NE 6.9 mph - N/A   Mostly Cloudy
3:55 PM 63.0 °F 49.5 °F 61% 30.23 in 10.0 mi ENE 6.9 mph - N/A   Mostly Cloudy
4:15 PM 63.0 °F 49.5 °F 61% 30.23 in 10.0 mi ENE 5.8 mph - N/A   Mostly Cloudy
4:35 PM 63.0 °F 47.8 °F 58% 30.23 in 10.0 mi East 9.2 mph - N/A   Mostly Cloudy
4:55 PM 63.0 °F 47.3 °F 57% 30.23 in 10.0 mi East 10.4 mph - N/A   Mostly Cloudy
5:15 PM 64.2 °F 46.9 °F 53% 30.22 in 10.0 mi East 8.1 mph - N/A   Scattered Clouds
5:35 PM 63.1 °F 46.8 °F 55% 30.21 in 10.0 mi ESE 12.7 mph - N/A   Clear
5:55 PM 63.0 °F 46.4 °F 55% 30.21 in 10.0 mi East 8.1 mph - N/A   Scattered Clouds
6:15 PM 63.1 °F 46.6 °F 55% 30.23 in 10.0 mi East 5.8 mph - N/A   Clear
6:35 PM 63.1 °F 47.1 °F 56% 30.23 in 10.0 mi ENE 6.9 mph - N/A   Clear
6:55 PM 63.0 °F 48.9 °F 60% 30.23 in 10.0 mi ESE 6.9 mph - N/A   Clear
7:15 PM 61.9 °F 48.9 °F 62% 30.23 in 10.0 mi East 9.2 mph - N/A   Clear
7:55 PM 59.5 °F 49.5 °F 69% 30.25 in 10.0 mi East 3.5 mph - N/A   Clear
8:15 PM 58.1 °F 48.6 °F 71% 30.25 in 10.0 mi East 5.8 mph - N/A   Clear
8:35 PM 58.1 °F 50.0 °F 74% 30.26 in 10.0 mi East 8.1 mph - N/A   Clear
8:55 PM 57.9 °F 50.4 °F 76% 30.27 in 10.0 mi East 5.8 mph - N/A   Clear
9:15 PM 55.4 °F 47.7 °F 75% 30.28 in 10.0 mi East 5.8 mph - N/A   Clear
9:35 PM 54.1 °F 46.8 °F 76% 30.29 in 10.0 mi East 5.8 mph - N/A   Clear
9:55 PM 53.6 °F 45.9 °F 75% 30.30 in 10.0 mi East 4.6 mph - N/A   Clear
10:15 PM 52.7 °F 45.9 °F 78% 30.30 in 10.0 mi NE 3.5 mph - N/A   Clear
10:35 PM 52.7 °F 46.0 °F 78% 30.30 in 10.0 mi ENE 4.6 mph - N/A   Clear
10:55 PM 52.7 °F 46.6 °F 80% 30.30 in 10.0 mi NE 3.5 mph - N/A   Clear
11:15 PM 50.2 °F 43.7 °F 78% 30.31 in 10.0 mi ENE 3.5 mph - N/A   Clear
11:35 PM 50.2 °F 43.7 °F 78% 30.31 in 10.0 mi ENE 3.5 mph - N/A   Clear
11:55 PM 48.9 °F 42.6 °F 79% 30.30 in 10.0 mi Calm Calm - N/A   Clear